TimeCST,TemperatureF,Dew PointF,Humidity,Sea Level PressureIn,VisibilityMPH,Wind Direction,Wind SpeedMPH,Gust SpeedMPH,PrecipitationIn,Events,Conditions,WindDirDegrees,DateUTC
12:05 AM,19.4,17.6,93,29.71,10.0,SSE,12.7,25.3,N/A,,Clear,160,2013-01-07 06:05:00
12:25 AM,19.4,15.8,86,29.70,10.0,South,9.2,-,N/A,,Scattered Clouds,170,2013-01-07 06:25:00
12:45 AM,19.4,15.8,86,29.68,10.0,South,10.4,19.6,N/A,,Clear,170,2013-01-07 06:45:00
1:05 AM,19.4,15.8,86,29.69,10.0,South,11.5,16.1,N/A,,Clear,170,2013-01-07 07:05:00
1:25 AM,19.4,15.8,86,29.67,10.0,South,8.1,17.3,N/A,,Clear,170,2013-01-07 07:25:00
1:45 AM,19.4,15.8,86,29.68,10.0,South,10.4,17.3,N/A,,Clear,170,2013-01-07 07:45:00
2:05 AM,19.4,15.8,86,29.67,10.0,South,6.9,16.1,N/A,,Clear,180,2013-01-07 08:05:00
2:25 AM,19.4,15.8,86,29.66,10.0,South,12.7,21.9,N/A,,Scattered Clouds,180,2013-01-07 08:25:00
2:45 AM,19.4,15.8,86,29.65,10.0,South,6.9,-,N/A,,Scattered Clouds,180,2013-01-07 08:45:00
3:05 AM,19.4,15.8,86,29.64,10.0,South,9.2,17.3,N/A,,Scattered Clouds,170,2013-01-07 09:05:00
3:25 AM,17.6,15.8,93,29.65,10.0,SSW,8.1,-,N/A,,Scattered Clouds,200,2013-01-07 09:25:00
3:45 AM,17.6,15.8,93,29.63,10.0,South,6.9,-,N/A,,Clear,180,2013-01-07 09:45:00
4:05 AM,19.4,15.8,86,29.63,10.0,South,9.2,-,N/A,,Clear,180,2013-01-07 10:05:00
4:25 AM,19.4,15.8,86,29.60,10.0,South,10.4,-,N/A,,Clear,180,2013-01-07 10:25:00
4:45 AM,19.4,15.8,86,29.61,10.0,SSW,9.2,-,N/A,,Clear,210,2013-01-07 10:45:00
5:04 AM,19.4,15.8,86,29.61,10.0,South,9.2,-,N/A,,Clear,190,2013-01-07 11:04:00
5:25 AM,19.4,15.8,86,29.60,10.0,South,6.9,-,N/A,,Clear,190,2013-01-07 11:25:00
6:25 AM,21.2,17.6,86,29.59,10.0,SSW,11.5,16.1,N/A,,Clear,200,2013-01-07 12:25:00
6:45 AM,24.8,19.4,80,29.60,10.0,SSW,10.4,-,N/A,,Clear,200,2013-01-07 12:45:00
7:04 AM,24.8,19.4,80,29.60,10.0,SSW,12.7,17.3,N/A,,Clear,210,2013-01-07 13:04:00
7:25 AM,24.8,19.4,80,29.61,10.0,SW,16.1,19.6,N/A,,Clear,220,2013-01-07 13:25:00
7:45 AM,24.8,19.4,80,29.61,10.0,SSW,15.0,21.9,N/A,,Clear,210,2013-01-07 13:45:00
8:05 AM,24.8,19.4,80,29.60,10.0,SSW,12.7,18.4,N/A,,Scattered Clouds,210,2013-01-07 14:05:00
8:25 AM,24.8,19.4,80,29.62,10.0,SW,12.7,-,N/A,,Scattered Clouds,220,2013-01-07 14:25:00
8:45 AM,24.8,19.4,80,29.61,10.0,SW,13.8,23.0,N/A,,Clear,220,2013-01-07 14:45:00
9:05 AM,26.6,21.2,80,29.61,10.0,SW,13.8,19.6,N/A,,Clear,220,2013-01-07 15:05:00
9:25 AM,26.6,21.2,80,29.62,10.0,SW,16.1,24.2,N/A,,Clear,220,2013-01-07 15:25:00
9:45 AM,28.4,23.0,80,29.63,10.0,SW,19.6,23.0,N/A,,Clear,230,2013-01-07 15:45:00
10:05 AM,28.4,23.0,80,29.63,10.0,SW,19.6,26.5,N/A,,Clear,230,2013-01-07 16:05:00
10:25 AM,30.2,24.8,80,29.63,10.0,SW,20.7,27.6,N/A,,Clear,230,2013-01-07 16:25:00
10:45 AM,30.2,24.8,80,29.63,10.0,SW,20.7,25.3,N/A,,Clear,230,2013-01-07 16:45:00
11:05 AM,30.2,24.8,80,29.64,10.0,SW,17.3,23.0,N/A,,Scattered Clouds,230,2013-01-07 17:05:00
11:25 AM,30.2,24.8,80,29.64,10.0,SW,21.9,28.8,N/A,,Mostly Cloudy,230,2013-01-07 17:25:00
11:45 AM,30.2,24.8,80,29.64,10.0,SW,19.6,27.6,N/A,,Overcast,230,2013-01-07 17:45:00
12:05 PM,30.2,26.6,86,29.65,10.0,SW,17.3,23.0,N/A,,Overcast,230,2013-01-07 18:05:00
12:25 PM,30.2,26.6,86,29.64,10.0,SW,20.7,25.3,N/A,,Overcast,230,2013-01-07 18:25:00
12:45 PM,30.2,26.6,86,29.64,10.0,WSW,18.4,25.3,N/A,,Overcast,240,2013-01-07 18:45:00
1:05 PM,30.2,26.6,86,29.65,10.0,SW,17.3,24.2,N/A,,Overcast,230,2013-01-07 19:05:00
1:25 PM,30.2,26.6,86,29.65,10.0,WSW,17.3,24.2,N/A,,Overcast,240,2013-01-07 19:25:00
1:45 PM,32.0,26.6,80,29.66,10.0,WSW,19.6,23.0,N/A,,Overcast,240,2013-01-07 19:45:00
2:05 PM,32.0,26.6,80,29.67,10.0,WSW,18.4,23.0,N/A,,Overcast,240,2013-01-07 20:05:00
2:25 PM,32.0,26.6,80,29.68,10.0,WSW,19.6,27.6,N/A,,Overcast,240,2013-01-07 20:25:00
2:45 PM,30.2,26.6,86,29.69,10.0,WSW,13.8,-,N/A,,Overcast,240,2013-01-07 20:45:00
3:05 PM,30.2,26.6,86,29.70,10.0,WSW,12.7,19.6,N/A,,Overcast,240,2013-01-07 21:05:00
3:25 PM,30.2,26.6,86,29.71,10.0,WSW,13.8,20.7,N/A,,Overcast,250,2013-01-07 21:25:00
3:45 PM,30.2,26.6,86,29.72,10.0,WSW,12.7,18.4,N/A,,Overcast,250,2013-01-07 21:45:00
4:05 PM,30.2,26.6,86,29.73,10.0,WSW,11.5,-,N/A,,Overcast,250,2013-01-07 22:05:00
4:24 PM,30.2,26.6,86,29.74,10.0,WSW,12.7,-,N/A,,Overcast,240,2013-01-07 22:24:00
4:45 PM,30.2,24.8,80,29.74,10.0,WSW,13.8,-,N/A,,Overcast,240,2013-01-07 22:45:00
5:05 PM,30.2,24.8,80,29.75,10.0,WSW,15.0,-,N/A,,Overcast,240,2013-01-07 23:05:00
5:25 PM,30.2,24.8,80,29.75,10.0,SW,13.8,18.4,N/A,,Overcast,230,2013-01-07 23:25:00
6:05 PM,30.2,24.8,80,29.77,10.0,SW,12.7,17.3,N/A,,Overcast,230,2013-01-08 00:05:00
6:24 PM,28.4,24.8,86,29.78,10.0,SW,9.2,-,N/A,,Overcast,230,2013-01-08 00:24:00
6:45 PM,28.4,24.8,86,29.79,10.0,WSW,11.5,-,N/A,,Overcast,240,2013-01-08 00:45:00
7:05 PM,28.4,24.8,86,29.79,10.0,WSW,10.4,-,N/A,,Overcast,240,2013-01-08 01:05:00
7:24 PM,28.4,24.8,86,29.80,10.0,WSW,10.4,-,N/A,,Overcast,240,2013-01-08 01:24:00
7:45 PM,28.4,24.8,86,29.80,10.0,WSW,8.1,-,N/A,,Overcast,240,2013-01-08 01:45:00
8:05 PM,28.4,24.8,86,29.81,10.0,WSW,8.1,-,N/A,,Overcast,240,2013-01-08 02:05:00
8:24 PM,28.4,24.8,86,29.81,10.0,WSW,9.2,-,N/A,,Overcast,240,2013-01-08 02:24:00
8:45 PM,28.4,24.8,86,29.82,10.0,SW,8.1,-,N/A,,Overcast,230,2013-01-08 02:45:00
9:25 PM,26.6,24.8,93,29.83,10.0,SW,11.5,-,N/A,,Overcast,230,2013-01-08 03:25:00
9:45 PM,26.6,23.0,86,29.84,10.0,SW,9.2,-,N/A,,Overcast,230,2013-01-08 03:45:00
10:05 PM,26.6,23.0,86,29.84,10.0,SW,9.2,-,N/A,,Overcast,230,2013-01-08 04:05:00
10:45 PM,26.6,23.0,86,29.84,10.0,SW,6.9,-,N/A,,Overcast,220,2013-01-08 04:45:00
11:05 PM,26.6,23.0,86,29.84,10.0,SSW,8.1,-,N/A,,Overcast,210,2013-01-08 05:05:00
11:25 PM,26.6,21.2,80,29.84,10.0,SSW,6.9,-,N/A,,Overcast,210,2013-01-08 05:25:00
11:45 PM,26.6,21.2,80,29.84,10.0,SW,9.2,-,N/A,,Overcast,220,2013-01-08 05:45:00